Time,TemperatureF,DewpointF,PressureIn,WindDirection,WindDirectionDegrees,WindSpeedMPH,WindSpeedGustMPH,Humidity,HourlyPrecipIn,Conditions,Clouds,dailyrainin,SoftwareType,DateUTC
2013-03-07 00:00:00,36.7,32.6,29.91,ENE,60,12.0,12.0,85,0.00,,,0.00,Wunderground v.1.15,2013-03-07 05:00:00,
2013-03-07 00:01:00,36.7,32.6,29.91,NE,34,12.0,13.0,85,0.00,,,0.00,Wunderground v.1.15,2013-03-07 05:01:00,
2013-03-07 00:02:00,36.7,32.6,29.91,NNW,347,12.0,14.0,85,0.00,,,0.00,Wunderground v.1.15,2013-03-07 05:02:00,
2013-03-07 00:04:00,36.6,32.8,29.91,ENE,65,13.0,23.0,86,0.00,,,0.00,Wunderground v.1.15,2013-03-07 05:04:00,
2013-03-07 00:09:00,36.4,32.6,29.91,East,89,13.0,25.0,86,0.00,,,0.00,Wunderground v.1.15,2013-03-07 05:09:00,
2013-03-07 00:14:00,36.1,32.6,29.91,NE,34,13.0,23.0,87,0.00,,,0.00,Wunderground v.1.15,2013-03-07 05:14:00,
2013-03-07 00:20:00,35.8,32.6,29.91,East,94,12.0,12.0,88,0.00,,,0.00,Wunderground v.1.15,2013-03-07 05:20:00,
2013-03-07 00:25:00,35.9,32.7,29.91,NNE,30,12.0,23.0,88,0.00,,,0.00,Wunderground v.1.15,2013-03-07 05:25:00,
2013-03-07 00:30:00,35.9,32.7,29.91,NE,56,13.0,13.0,88,0.00,,,0.00,Wunderground v.1.15,2013-03-07 05:30:00,
2013-03-07 00:36:00,35.8,32.6,29.91,NNE,18,13.0,23.0,88,0.00,,,0.00,Wunderground v.1.15,2013-03-07 05:36:00,
2013-03-07 00:42:00,35.6,32.7,29.91,NNE,33,14.0,23.0,89,0.00,,,0.00,Wunderground v.1.15,2013-03-07 05:42:00,
2013-03-07 00:47:00,35.4,32.5,29.91,NE,34,12.0,23.0,89,0.00,,,0.00,Wunderground v.1.15,2013-03-07 05:47:00,
2013-03-07 00:52:00,35.4,32.5,29.90,NE,36,12.0,23.0,89,0.00,,,0.00,Wunderground v.1.15,2013-03-07 05:52:00,
2013-03-07 00:57:00,35.3,32.7,29.90,ENE,57,11.0,23.0,90,0.00,,,0.01,Wunderground v.1.15,2013-03-07 05:57:00,
2013-03-07 01:03:00,35.4,32.8,29.90,NNE,32,12.0,23.0,90,0.00,,,0.01,Wunderground v.1.15,2013-03-07 06:03:00,
2013-03-07 01:08:00,35.3,32.7,29.90,NNE,12,12.0,23.0,90,0.00,,,0.01,Wunderground v.1.15,2013-03-07 06:08:00,
2013-03-07 01:13:00,35.3,32.7,29.90,ENE,65,12.0,23.0,90,0.00,,,0.01,Wunderground v.1.15,2013-03-07 06:13:00,
2013-03-07 01:18:00,35.3,32.7,29.90,North,11,12.0,23.0,90,0.00,,,0.01,Wunderground v.1.15,2013-03-07 06:18:00,
2013-03-07 01:24:00,35.1,32.7,29.89,East,87,12.0,23.0,91,0.00,,,0.01,Wunderground v.1.15,2013-03-07 06:24:00,
2013-03-07 01:29:00,35.1,32.7,29.90,ENE,64,11.0,23.0,91,0.00,,,0.01,Wunderground v.1.15,2013-03-07 06:29:00,
2013-03-07 01:34:00,34.9,33.1,29.90,NNE,28,11.0,23.0,93,0.00,,,0.01,Wunderground v.1.15,2013-03-07 06:34:00,
2013-03-07 01:39:00,34.9,33.1,29.90,NE,51,10.0,23.0,93,0.00,,,0.01,Wunderground v.1.15,2013-03-07 06:39:00,
2013-03-07 01:44:00,34.9,33.3,29.89,NNE,24,11.0,23.0,94,0.00,,,0.01,Wunderground v.1.15,2013-03-07 06:44:00,
2013-03-07 01:50:00,34.8,33.2,29.89,NE,43,12.0,23.0,94,0.00,,,0.01,Wunderground v.1.15,2013-03-07 06:50:00,
2013-03-07 01:55:00,34.7,33.2,29.89,ENE,57,11.0,23.0,94,0.00,,,0.01,Wunderground v.1.15,2013-03-07 06:55:00,
2013-03-07 02:00:00,34.7,33.2,29.89,NNW,348,13.0,23.0,94,0.00,,,0.01,Wunderground v.1.15,2013-03-07 07:00:00,
2013-03-07 02:06:00,34.8,33.2,29.89,North,11,14.0,23.0,94,0.00,,,0.01,Wunderground v.1.15,2013-03-07 07:06:00,
2013-03-07 02:12:00,34.7,33.2,29.89,NE,34,11.0,23.0,94,0.00,,,0.01,Wunderground v.1.15,2013-03-07 07:12:00,
2013-03-07 02:18:00,34.7,33.2,29.89,NE,43,10.0,23.0,94,0.00,,,0.01,Wunderground v.1.15,2013-03-07 07:18:00,
2013-03-07 02:23:00,34.7,33.2,29.89,NNE,18,11.0,23.0,94,0.00,,,0.01,Wunderground v.1.15,2013-03-07 07:23:00,
2013-03-07 02:29:00,34.6,33.3,29.88,NE,34,10.0,23.0,95,0.00,,,0.01,Wunderground v.1.15,2013-03-07 07:29:00,
2013-03-07 02:34:00,34.7,33.4,29.89,North,6,9.0,23.0,95,0.00,,,0.01,Wunderground v.1.15,2013-03-07 07:34:00,
2013-03-07 02:40:00,34.7,33.4,29.89,NE,49,9.0,23.0,95,0.00,,,0.01,Wunderground v.1.15,2013-03-07 07:40:00,
2013-03-07 02:45:00,34.8,33.2,29.89,NE,34,10.0,23.0,94,0.00,,,0.01,Wunderground v.1.15,2013-03-07 07:45:00,
2013-03-07 02:51:00,34.8,33.2,29.89,NE,34,9.0,23.0,94,0.00,,,0.01,Wunderground v.1.15,2013-03-07 07:51:00,
2013-03-07 02:57:00,34.9,33.1,29.88,NNW,339,10.0,23.0,93,0.00,,,0.01,Wunderground v.1.15,2013-03-07 07:57:00,
2013-03-07 03:02:00,34.9,32.8,29.88,North,11,10.0,23.0,92,0.00,,,0.01,Wunderground v.1.15,2013-03-07 08:02:00,
2013-03-07 03:07:00,34.8,32.7,29.88,NNE,14,10.0,23.0,92,0.00,,,0.01,Wunderground v.1.15,2013-03-07 08:07:00,
2013-03-07 03:13:00,34.8,32.7,29.88,North,9,10.0,23.0,92,0.00,,,0.02,Wunderground v.1.15,2013-03-07 08:13:00,
2013-03-07 03:18:00,34.6,32.5,29.88,NNE,26,12.0,23.0,92,0.00,,,0.02,Wunderground v.1.15,2013-03-07 08:18:00,
2013-03-07 03:24:00,34.5,32.4,29.89,NE,39,12.0,23.0,92,0.00,,,0.02,Wunderground v.1.15,2013-03-07 08:24:00,
2013-03-07 03:29:00,34.3,32.2,29.89,NNE,16,10.0,23.0,92,0.00,,,0.02,Wunderground v.1.15,2013-03-07 08:29:00,
2013-03-07 03:34:00,34.1,32.3,29.88,NNE,23,10.0,23.0,93,0.00,,,0.02,Wunderground v.1.15,2013-03-07 08:34:00,
2013-03-07 03:39:00,34.0,32.2,29.88,NNE,17,11.0,23.0,93,0.00,,,0.02,Wunderground v.1.15,2013-03-07 08:39:00,
2013-03-07 03:45:00,33.9,32.1,29.88,NNW,343,11.0,23.0,93,0.00,,,0.02,Wunderground v.1.15,2013-03-07 08:45:00,
2013-03-07 03:50:00,33.7,32.2,29.88,North,5,11.0,11.0,94,0.00,,,0.02,Wunderground v.1.15,2013-03-07 08:50:00,
2013-03-07 03:55:00,33.6,32.3,29.88,NNE,25,11.0,23.0,95,0.00,,,0.02,Wunderground v.1.15,2013-03-07 08:55:00,
2013-03-07 04:01:00,33.5,32.2,29.88,NNE,25,9.0,23.0,95,0.00,,,0.02,Wunderground v.1.15,2013-03-07 09:01:00,
2013-03-07 04:07:00,33.4,32.1,29.89,NE,42,9.0,23.0,95,0.00,,,0.02,Wunderground v.1.15,2013-03-07 09:07:00,
2013-03-07 04:13:00,33.3,32.3,29.89,North,7,9.0,23.0,96,0.00,,,0.02,Wunderground v.1.15,2013-03-07 09:13:00,
2013-03-07 04:19:00,33.3,32.3,29.89,NE,54,8.0,23.0,96,0.00,,,0.02,Wunderground v.1.15,2013-03-07 09:19:00,
2013-03-07 04:25:00,33.3,32.3,29.89,NW,326,10.0,24.0,96,0.00,,,0.02,Wunderground v.1.15,2013-03-07 09:25:00,
2013-03-07 04:30:00,33.4,32.4,29.89,NNE,15,12.0,23.0,96,0.00,,,0.02,Wunderground v.1.15,2013-03-07 09:30:00,
2013-03-07 04:36:00,33.5,32.5,29.89,NNE,32,12.0,23.0,96,0.00,,,0.02,Wunderground v.1.15,2013-03-07 09:36:00,
2013-03-07 04:41:00,33.5,32.5,29.90,NNE,27,11.0,23.0,96,0.00,,,0.02,Wunderground v.1.15,2013-03-07 09:41:00,
2013-03-07 04:46:00,33.6,32.6,29.89,NE,39,10.0,23.0,96,0.00,,,0.02,Wunderground v.1.15,2013-03-07 09:46:00,
2013-03-07 04:51:00,33.6,32.6,29.89,NNW,332,11.0,23.0,96,0.00,,,0.02,Wunderground v.1.15,2013-03-07 09:51:00,
2013-03-07 04:57:00,33.7,32.7,29.89,NNE,33,12.0,23.0,96,0.00,,,0.02,Wunderground v.1.15,2013-03-07 09:57:00,
2013-03-07 05:02:00,33.7,32.7,29.90,WNW,297,11.0,23.0,96,0.00,,,0.02,Wunderground v.1.15,2013-03-07 10:02:00,
2013-03-07 05:08:00,33.6,32.6,29.90,ENE,74,10.0,23.0,96,0.00,,,0.02,Wunderground v.1.15,2013-03-07 10:08:00,
2013-03-07 05:13:00,33.5,32.5,29.90,ENE,64,11.0,23.0,96,0.00,,,0.02,Wunderground v.1.15,2013-03-07 10:13:00,
2013-03-07 05:18:00,33.4,32.4,29.90,NE,49,11.0,23.0,96,0.00,,,0.02,Wunderground v.1.15,2013-03-07 10:18:00,
2013-03-07 05:24:00,33.4,32.4,29.90,NNE,32,9.0,23.0,96,0.00,,,0.02,Wunderground v.1.15,2013-03-07 10:24:00,
2013-03-07 05:29:00,33.3,32.3,29.89,NE,43,9.0,23.0,96,0.00,,,0.02,Wunderground v.1.15,2013-03-07 10:29:00,
2013-03-07 05:35:00,33.3,32.3,29.90,ENE,68,9.0,23.0,96,0.00,,,0.02,Wunderground v.1.15,2013-03-07 10:35:00,
2013-03-07 05:40:00,33.2,32.2,29.90,NNE,18,7.0,23.0,96,0.00,,,0.02,Wunderground v.1.15,2013-03-07 10:40:00,
2013-03-07 05:45:00,33.2,32.2,29.90,NNE,13,8.0,23.0,96,0.00,,,0.02,Wunderground v.1.15,2013-03-07 10:45:00,
2013-03-07 05:50:00,33.1,32.1,29.90,North,8,10.0,23.0,96,0.00,,,0.02,Wunderground v.1.15,2013-03-07 10:50:00,
2013-03-07 05:56:00,32.9,31.9,29.90,NNE,19,10.0,23.0,96,0.00,,,0.02,Wunderground v.1.15,2013-03-07 10:56:00,
2013-03-07 06:01:00,32.8,31.8,29.91,NNE,32,9.0,23.0,96,0.00,,,0.02,Wunderground v.1.15,2013-03-07 11:01:00,
2013-03-07 06:06:00,32.7,31.7,29.90,NE,34,9.0,23.0,96,0.00,,,0.02,Wunderground v.1.15,2013-03-07 11:06:00,
2013-03-07 06:12:00,32.6,31.6,29.91,NE,53,10.0,23.0,96,0.00,,,0.02,Wunderground v.1.15,2013-03-07 11:12:00,
2013-03-07 06:18:00,32.5,31.2,29.91,NNW,345,10.0,23.0,95,0.00,,,0.02,Wunderground v.1.15,2013-03-07 11:18:00,
2013-03-07 06:24:00,32.4,31.1,29.90,NE,35,9.0,23.0,95,0.00,,,0.02,Wunderground v.1.15,2013-03-07 11:24:00,
2013-03-07 06:29:00,32.4,31.1,29.90,NE,43,10.0,23.0,95,0.00,,,0.02,Wunderground v.1.15,2013-03-07 11:29:00,
2013-03-07 06:34:00,32.4,31.1,29.91,NE,47,11.0,23.0,95,0.00,,,0.02,Wunderground v.1.15,2013-03-07 11:34:00,
2013-03-07 06:40:00,32.4,30.9,29.90,NE,55,10.0,23.0,94,0.00,,,0.02,Wunderground v.1.15,2013-03-07 11:40:00,
2013-03-07 06:45:00,32.4,30.9,29.91,North,6,10.0,23.0,94,0.00,,,0.02,Wunderground v.1.15,2013-03-07 11:45:00,
2013-03-07 06:50:00,32.4,30.9,29.91,NE,34,8.0,8.0,94,0.00,,,0.02,Wunderground v.1.15,2013-03-07 11:50:00,
2013-03-07 06:57:00,32.4,30.6,29.91,NNE,32,10.0,23.0,93,0.00,,,0.02,Wunderground v.1.15,2013-03-07 11:57:00,
2013-03-07 07:02:00,32.4,30.6,29.91,ENE,58,11.0,23.0,93,0.00,,,0.02,Wunderground v.1.15,2013-03-07 12:02:00,
2013-03-07 07:08:00,32.4,30.6,29.91,North,11,11.0,25.0,93,0.00,,,0.02,Wunderground v.1.15,2013-03-07 12:08:00,
2013-03-07 07:13:00,32.5,30.7,29.91,North,351,11.0,23.0,93,0.00,,,0.02,Wunderground v.1.15,2013-03-07 12:13:00,
2013-03-07 07:19:00,32.5,30.4,29.91,NNE,26,11.0,23.0,92,0.00,,,0.02,Wunderground v.1.15,2013-03-07 12:19:00,
2013-03-07 07:24:00,32.5,30.4,29.91,NNE,28,11.0,23.0,92,0.00,,,0.02,Wunderground v.1.15,2013-03-07 12:24:00,
2013-03-07 07:30:00,32.5,30.4,29.90,North,11,11.0,11.0,92,0.00,,,0.02,Wunderground v.1.15,2013-03-07 12:30:00,
2013-03-07 07:35:00,32.5,30.4,29.91,West,269,9.0,23.0,92,0.00,,,0.02,Wunderground v.1.15,2013-03-07 12:35:00,
2013-03-07 07:40:00,32.6,30.3,29.91,NE,46,9.0,9.0,91,0.00,,,0.02,Wunderground v.1.15,2013-03-07 12:40:00,
2013-03-07 07:45:00,32.7,30.4,29.91,North,350,11.0,23.0,91,0.00,,,0.02,Wunderground v.1.15,2013-03-07 12:45:00,
2013-03-07 07:50:00,32.7,30.1,29.92,NNW,347,10.0,10.0,90,0.00,,,0.02,Wunderground v.1.15,2013-03-07 12:50:00,
2013-03-07 07:56:00,32.8,30.2,29.92,NNE,13,11.0,23.0,90,0.00,,,0.02,Wunderground v.1.15,2013-03-07 12:56:00,
2013-03-07 08:01:00,32.9,30.3,29.92,NNE,30,12.0,23.0,90,0.00,,,0.02,Wunderground v.1.15,2013-03-07 13:01:00,
2013-03-07 08:06:00,32.9,30.3,29.91,NE,44,12.0,23.0,90,0.00,,,0.02,Wunderground v.1.15,2013-03-07 13:06:00,
2013-03-07 08:12:00,32.9,30.0,29.91,North,360,11.0,23.0,89,0.00,,,0.02,Wunderground v.1.15,2013-03-07 13:12:00,
2013-03-07 08:18:00,33.0,30.1,29.91,North,358,11.0,23.0,89,0.00,,,0.02,Wunderground v.1.15,2013-03-07 13:18:00,
2013-03-07 08:24:00,33.1,30.2,29.91,NE,39,12.0,23.0,89,0.00,,,0.02,Wunderground v.1.15,2013-03-07 13:24:00,
2013-03-07 08:29:00,33.2,30.0,29.90,NE,46,12.0,23.0,88,0.00,,,0.02,Wunderground v.1.15,2013-03-07 13:29:00,
2013-03-07 08:35:00,33.3,30.1,29.90,NE,49,11.0,21.0,88,0.00,,,0.02,Wunderground v.1.15,2013-03-07 13:35:00,
2013-03-07 08:41:00,33.4,30.2,29.91,NE,51,11.0,15.0,88,0.00,,,0.02,Wunderground v.1.15,2013-03-07 13:41:00,
2013-03-07 08:46:00,33.5,30.0,29.91,NNE,16,12.0,20.0,87,0.00,,,0.02,Wunderground v.1.15,2013-03-07 13:46:00,
2013-03-07 08:51:00,33.6,30.1,29.90,NE,53,12.0,12.0,87,0.00,,,0.02,Wunderground v.1.15,2013-03-07 13:51:00,
2013-03-07 08:57:00,33.7,30.2,29.90,NNW,345,11.0,13.0,87,0.00,,,0.02,Wunderground v.1.15,2013-03-07 13:57:00,
2013-03-07 09:02:00,33.7,30.2,29.91,ESE,115,11.0,23.0,87,0.00,,,0.02,Wunderground v.1.15,2013-03-07 14:02:00,
2013-03-07 09:07:00,34.0,30.5,29.90,North,359,10.0,23.0,87,0.00,,,0.02,Wunderground v.1.15,2013-03-07 14:07:00,
2013-03-07 09:13:00,34.4,30.6,29.90,NNE,32,10.0,21.0,86,0.00,,,0.02,Wunderground v.1.15,2013-03-07 14:13:00,
2013-03-07 09:18:00,34.8,30.8,29.90,NE,37,12.0,21.0,85,0.00,,,0.02,Wunderground v.1.15,2013-03-07 14:18:00,
2013-03-07 09:23:00,35.0,30.9,29.90,NE,54,11.0,24.0,85,0.00,,,0.02,Wunderground v.1.15,2013-03-07 14:23:00,
2013-03-07 09:28:00,35.2,31.1,29.90,North,9,12.0,24.0,85,0.00,,,0.02,Wunderground v.1.15,2013-03-07 14:28:00,
2013-03-07 09:34:00,35.5,31.4,29.90,NNE,27,12.0,24.0,85,0.00,,,0.02,Wunderground v.1.15,2013-03-07 14:34:00,
2013-03-07 09:40:00,35.9,31.5,29.90,North,360,11.0,24.0,84,0.00,,,0.02,Wunderground v.1.15,2013-03-07 14:40:00,
2013-03-07 09:46:00,36.2,31.8,29.90,ENE,60,12.0,24.0,84,0.00,,,0.02,Wunderground v.1.15,2013-03-07 14:46:00,
2013-03-07 09:52:00,36.0,31.3,29.90,NNE,32,12.0,24.0,83,0.00,,,0.02,Wunderground v.1.15,2013-03-07 14:52:00,
2013-03-07 09:57:00,35.9,31.5,29.90,NE,44,12.0,24.0,84,0.00,,,0.02,Wunderground v.1.15,2013-03-07 14:57:00,
2013-03-07 10:03:00,36.1,32.0,29.90,NNW,347,11.0,24.0,85,0.00,,,0.02,Wunderground v.1.15,2013-03-07 15:03:00,
2013-03-07 10:09:00,36.4,32.0,29.90,NNE,17,13.0,24.0,84,0.00,,,0.02,Wunderground v.1.15,2013-03-07 15:09:00,
2013-03-07 10:15:00,36.7,32.3,29.91,North,356,13.0,25.0,84,0.00,,,0.02,Wunderground v.1.15,2013-03-07 15:15:00,
2013-03-07 10:20:00,36.7,32.0,29.90,ENE,74,12.0,24.0,83,0.00,,,0.02,Wunderground v.1.15,2013-03-07 15:20:00,
2013-03-07 10:26:00,36.7,32.3,29.91,ENE,75,12.0,24.0,84,0.00,,,0.02,Wunderground v.1.15,2013-03-07 15:26:00,
2013-03-07 10:32:00,36.9,32.8,29.91,North,7,12.0,24.0,85,0.00,,,0.02,Wunderground v.1.15,2013-03-07 15:32:00,
2013-03-07 10:38:00,37.0,32.9,29.91,NNE,16,11.0,24.0,85,0.00,,,0.02,Wunderground v.1.15,2013-03-07 15:38:00,
2013-03-07 10:44:00,36.8,32.7,29.91,NE,46,12.0,24.0,85,0.00,,,0.02,Wunderground v.1.15,2013-03-07 15:44:00,
2013-03-07 10:49:00,36.9,32.8,29.91,NE,54,10.0,24.0,85,0.00,,,0.02,Wunderground v.1.15,2013-03-07 15:49:00,
2013-03-07 10:54:00,36.7,32.3,29.91,ENE,58,10.0,24.0,84,0.00,,,0.02,Wunderground v.1.15,2013-03-07 15:54:00,
2013-03-07 11:00:00,36.7,32.6,29.92,NNE,23,12.0,24.0,85,0.00,,,0.02,Wunderground v.1.15,2013-03-07 16:00:00,
2013-03-07 11:06:00,36.9,32.8,29.91,NNE,30,12.0,24.0,85,0.00,,,0.02,Wunderground v.1.15,2013-03-07 16:06:00,
2013-03-07 11:12:00,36.9,32.8,29.91,NE,39,11.0,19.0,85,0.00,,,0.02,Wunderground v.1.15,2013-03-07 16:12:00,
2013-03-07 11:18:00,36.8,33.0,29.92,NNE,26,12.0,19.0,86,0.00,,,0.02,Wunderground v.1.15,2013-03-07 16:18:00,
2013-03-07 11:24:00,37.0,32.9,29.91,NNE,23,12.0,23.0,85,0.00,,,0.02,Wunderground v.1.15,2013-03-07 16:24:00,
2013-03-07 11:29:00,37.2,33.1,29.92,NW,319,11.0,23.0,85,0.00,,,0.02,Wunderground v.1.15,2013-03-07 16:29:00,
2013-03-07 11:34:00,37.5,33.4,29.92,North,1,11.0,14.0,85,0.00,,,0.02,Wunderground v.1.15,2013-03-07 16:34:00,
2013-03-07 11:40:00,37.4,33.0,29.92,NE,39,11.0,11.0,84,0.00,,,0.02,Wunderground v.1.15,2013-03-07 16:40:00,
2013-03-07 11:45:00,37.3,32.9,29.92,North,1,14.0,21.0,84,0.00,,,0.02,Wunderground v.1.15,2013-03-07 16:45:00,
2013-03-07 11:51:00,37.5,33.1,29.92,North,3,13.0,13.0,84,0.00,,,0.02,Wunderground v.1.15,2013-03-07 16:51:00,
2013-03-07 11:56:00,37.7,33.6,29.92,ENE,67,12.0,15.0,85,0.00,,,0.02,Wunderground v.1.15,2013-03-07 16:56:00,
2013-03-07 12:02:00,37.8,33.4,29.92,North,11,11.0,29.0,84,0.00,,,0.02,Wunderground v.1.15,2013-03-07 17:02:00,
2013-03-07 12:07:00,37.6,33.2,29.91,North,351,11.0,29.0,84,0.00,,,0.02,Wunderground v.1.15,2013-03-07 17:07:00,
2013-03-07 12:12:00,37.6,33.2,29.91,North,11,11.0,29.0,84,0.00,,,0.02,Wunderground v.1.15,2013-03-07 17:12:00,
2013-03-07 12:18:00,37.6,33.2,29.91,NNW,332,9.0,29.0,84,0.00,,,0.02,Wunderground v.1.15,2013-03-07 17:18:00,
2013-03-07 12:23:00,37.6,32.9,29.92,NE,39,9.0,29.0,83,0.00,,,0.02,Wunderground v.1.15,2013-03-07 17:23:00,
2013-03-07 12:28:00,37.7,33.0,29.92,North,359,10.0,29.0,83,0.00,,,0.02,Wunderground v.1.15,2013-03-07 17:28:00,
2013-03-07 12:33:00,37.7,33.3,29.91,NNE,27,11.0,29.0,84,0.00,,,0.02,Wunderground v.1.15,2013-03-07 17:33:00,
2013-03-07 12:39:00,37.4,33.0,29.92,NNW,342,10.0,29.0,84,0.00,,,0.02,Wunderground v.1.15,2013-03-07 17:39:00,
2013-03-07 12:44:00,37.3,33.2,29.91,NW,322,10.0,29.0,85,0.00,,,0.02,Wunderground v.1.15,2013-03-07 17:44:00,
2013-03-07 12:50:00,37.3,33.2,29.91,ENE,65,10.0,10.0,85,0.00,,,0.02,Wunderground v.1.15,2013-03-07 17:50:00,
2013-03-07 12:55:00,37.3,32.9,29.90,NW,319,10.0,29.0,84,0.00,,,0.02,Wunderground v.1.15,2013-03-07 17:55:00,
2013-03-07 13:00:00,37.1,32.7,29.91,North,360,12.0,12.0,84,0.00,,,0.02,Wunderground v.1.15,2013-03-07 18:00:00,
2013-03-07 13:06:00,37.2,33.1,29.91,NE,44,12.0,29.0,85,0.00,,,0.02,Wunderground v.1.15,2013-03-07 18:06:00,
2013-03-07 13:12:00,37.2,33.1,29.90,ENE,69,10.0,29.0,85,0.00,,,0.02,Wunderground v.1.15,2013-03-07 18:12:00,
2013-03-07 13:17:00,37.3,32.9,29.90,ENE,58,12.0,29.0,84,0.00,,,0.02,Wunderground v.1.15,2013-03-07 18:17:00,
2013-03-07 13:22:00,37.3,32.6,29.90,North,8,13.0,29.0,83,0.00,,,0.02,Wunderground v.1.15,2013-03-07 18:22:00,
2013-03-07 13:28:00,37.4,32.7,29.90,East,81,13.0,29.0,83,0.00,,,0.02,Wunderground v.1.15,2013-03-07 18:28:00,
2013-03-07 13:33:00,37.4,32.7,29.91,North,9,12.0,29.0,83,0.00,,,0.02,Wunderground v.1.15,2013-03-07 18:33:00,
2013-03-07 13:38:00,37.5,32.8,29.91,NNE,23,11.0,29.0,83,0.00,,,0.02,Wunderground v.1.15,2013-03-07 18:38:00,
2013-03-07 13:44:00,37.4,32.4,29.91,East,80,12.0,29.0,82,0.00,,,0.02,Wunderground v.1.15,2013-03-07 18:44:00,
2013-03-07 13:50:00,37.3,32.3,29.91,NE,49,12.0,12.0,82,0.00,,,0.02,Wunderground v.1.15,2013-03-07 18:50:00,
2013-03-07 13:55:00,37.4,32.4,29.91,NNE,16,11.0,29.0,82,0.00,,,0.02,Wunderground v.1.15,2013-03-07 18:55:00,
2013-03-07 14:00:00,37.3,32.6,29.91,NE,47,12.0,12.0,83,0.00,,,0.02,Wunderground v.1.15,2013-03-07 19:00:00,
2013-03-07 14:06:00,37.3,32.3,29.91,NE,41,13.0,29.0,82,0.00,,,0.02,Wunderground v.1.15,2013-03-07 19:06:00,
2013-03-07 14:11:00,37.5,32.8,29.91,North,354,12.0,29.0,83,0.00,,,0.02,Wunderground v.1.15,2013-03-07 19:11:00,
2013-03-07 14:16:00,37.5,32.5,29.92,North,356,10.0,29.0,82,0.00,,,0.02,Wunderground v.1.15,2013-03-07 19:16:00,
2013-03-07 14:22:00,37.1,32.1,29.90,NNW,341,11.0,29.0,82,0.00,,,0.02,Wunderground v.1.15,2013-03-07 19:22:00,
2013-03-07 14:27:00,37.1,32.1,29.91,NNW,345,11.0,29.0,82,0.00,,,0.02,Wunderground v.1.15,2013-03-07 19:27:00,
2013-03-07 14:33:00,37.4,32.7,29.91,East,87,10.0,29.0,83,0.00,,,0.02,Wunderground v.1.15,2013-03-07 19:33:00,
2013-03-07 14:39:00,37.6,32.3,29.91,North,8,11.0,29.0,81,0.00,,,0.02,Wunderground v.1.15,2013-03-07 19:39:00,
2013-03-07 14:44:00,37.4,32.1,29.92,NNE,17,12.0,29.0,81,0.00,,,0.02,Wunderground v.1.15,2013-03-07 19:44:00,
2013-03-07 14:50:00,37.2,31.9,29.91,NNE,16,11.0,11.0,81,0.00,,,0.02,Wunderground v.1.15,2013-03-07 19:50:00,
2013-03-07 14:55:00,37.1,32.1,29.91,NE,47,10.0,29.0,82,0.00,,,0.02,Wunderground v.1.15,2013-03-07 19:55:00,
2013-03-07 15:00:00,37.3,32.0,29.91,NE,50,10.0,29.0,81,0.00,,,0.02,Wunderground v.1.15,2013-03-07 20:00:00,
2013-03-07 15:05:00,37.5,32.2,29.92,NNW,331,11.0,29.0,81,0.00,,,0.02,Wunderground v.1.15,2013-03-07 20:05:00,
2013-03-07 15:11:00,37.2,31.9,29.92,ESE,104,12.0,29.0,81,0.00,,,0.02,Wunderground v.1.15,2013-03-07 20:11:00,
2013-03-07 15:16:00,37.0,32.0,29.92,North,5,13.0,29.0,82,0.00,,,0.02,Wunderground v.1.15,2013-03-07 20:16:00,
2013-03-07 15:22:00,36.8,31.8,29.92,North,350,13.0,29.0,82,0.00,,,0.02,Wunderground v.1.15,2013-03-07 20:22:00,
2013-03-07 15:28:00,36.7,31.7,29.92,ENE,72,12.0,29.0,82,0.00,,,0.02,Wunderground v.1.15,2013-03-07 20:28:00,
2013-03-07 15:33:00,36.6,31.3,29.92,NE,47,10.0,29.0,81,0.00,,,0.02,Wunderground v.1.15,2013-03-07 20:33:00,
2013-03-07 15:38:00,36.5,31.2,29.92,NNW,334,11.0,29.0,81,0.00,,,0.02,Wunderground v.1.15,2013-03-07 20:38:00,
2013-03-07 15:44:00,36.3,31.3,29.92,NNW,333,10.0,29.0,82,0.00,,,0.02,Wunderground v.1.15,2013-03-07 20:44:00,
2013-03-07 15:50:00,36.1,31.1,29.92,NE,46,10.0,29.0,82,0.00,,,0.02,Wunderground v.1.15,2013-03-07 20:50:00,
2013-03-07 15:55:00,36.1,30.8,29.93,NNE,20,11.0,29.0,81,0.00,,,0.02,Wunderground v.1.15,2013-03-07 20:55:00,
2013-03-07 16:01:00,36.1,30.8,29.93,ENE,65,12.0,29.0,81,0.00,,,0.02,Wunderground v.1.15,2013-03-07 21:01:00,
2013-03-07 16:07:00,36.0,30.7,29.93,NNE,32,10.0,29.0,81,0.00,,,0.02,Wunderground v.1.15,2013-03-07 21:07:00,
2013-03-07 16:13:00,35.8,30.8,29.93,NNW,340,11.0,16.0,82,0.00,,,0.02,Wunderground v.1.15,2013-03-07 21:13:00,
2013-03-07 16:18:00,35.7,30.7,29.93,North,354,11.0,29.0,82,0.00,,,0.02,Wunderground v.1.15,2013-03-07 21:18:00,
2013-03-07 16:24:00,35.5,30.5,29.93,NNE,14,9.0,29.0,82,0.00,,,0.02,Wunderground v.1.15,2013-03-07 21:24:00,
2013-03-07 16:30:00,35.3,30.7,29.94,NNE,18,11.0,11.0,83,0.00,,,0.02,Wunderground v.1.15,2013-03-07 21:30:00,
2013-03-07 16:35:00,35.2,30.9,29.94,ENE,60,11.0,29.0,84,0.00,,,0.02,Wunderground v.1.15,2013-03-07 21:35:00,
2013-03-07 16:40:00,34.8,30.8,29.94,NNE,25,10.0,29.0,85,0.00,,,0.02,Wunderground v.1.15,2013-03-07 21:40:00,
2013-03-07 16:45:00,34.5,31.0,29.93,East,79,10.0,29.0,87,0.00,,,0.02,Wunderground v.1.15,2013-03-07 21:45:00,
2013-03-07 16:51:00,34.2,31.0,29.94,NNW,346,10.0,29.0,88,0.00,,,0.02,Wunderground v.1.15,2013-03-07 21:51:00,
2013-03-07 16:57:00,33.9,31.0,29.94,NNE,29,8.0,29.0,89,0.00,,,0.02,Wunderground v.1.15,2013-03-07 21:57:00,
2013-03-07 17:03:00,34.0,31.1,29.94,NE,45,8.0,29.0,89,0.00,,,0.02,Wunderground v.1.15,2013-03-07 22:03:00,
2013-03-07 17:09:00,34.1,30.9,29.94,NE,49,8.0,29.0,88,0.00,,,0.02,Wunderground v.1.15,2013-03-07 22:09:00,
2013-03-07 17:14:00,34.1,30.6,29.94,North,8,8.0,29.0,87,0.00,,,0.02,Wunderground v.1.15,2013-03-07 22:14:00,
2013-03-07 17:19:00,34.2,30.7,29.94,NNE,28,8.0,29.0,87,0.00,,,0.02,Wunderground v.1.15,2013-03-07 22:19:00,
2013-03-07 17:25:00,34.3,30.8,29.94,NE,36,9.0,29.0,87,0.00,,,0.02,Wunderground v.1.15,2013-03-07 22:25:00,
2013-03-07 17:31:00,34.4,30.6,29.94,NE,51,9.0,29.0,86,0.00,,,0.02,Wunderground v.1.15,2013-03-07 22:31:00,
2013-03-07 17:37:00,34.4,30.6,29.94,NE,34,10.0,29.0,86,0.00,,,0.02,Wunderground v.1.15,2013-03-07 22:37:00,
2013-03-07 17:42:00,34.4,30.4,29.94,NNE,28,10.0,29.0,85,0.00,,,0.02,Wunderground v.1.15,2013-03-07 22:42:00,
2013-03-07 17:47:00,34.3,30.3,29.94,WSW,257,10.0,29.0,85,0.00,,,0.02,Wunderground v.1.15,2013-03-07 22:47:00,
2013-03-07 17:53:00,34.0,30.3,29.94,NW,307,9.0,29.0,86,0.00,,,0.02,Wunderground v.1.15,2013-03-07 22:53:00,
2013-03-07 17:59:00,33.7,30.5,29.94,ENE,60,9.0,29.0,88,0.00,,,0.02,Wunderground v.1.15,2013-03-07 22:59:00,
2013-03-07 18:05:00,33.6,30.4,29.94,North,9,9.0,29.0,88,0.00,,,0.02,Wunderground v.1.15,2013-03-07 23:05:00,
2013-03-07 18:10:00,33.6,30.1,29.94,NNW,342,11.0,11.0,87,0.00,,,0.02,Wunderground v.1.15,2013-03-07 23:10:00,
2013-03-07 18:16:00,33.6,30.1,29.94,NNE,16,10.0,29.0,87,0.00,,,0.02,Wunderground v.1.15,2013-03-07 23:16:00,
2013-03-07 18:21:00,33.7,30.0,29.95,NW,315,9.0,29.0,86,0.00,,,0.02,Wunderground v.1.15,2013-03-07 23:21:00,
2013-03-07 18:27:00,33.8,29.8,29.95,NE,41,9.0,29.0,85,0.00,,,0.02,Wunderground v.1.15,2013-03-07 23:27:00,
2013-03-07 18:33:00,33.8,29.8,29.94,North,11,9.0,29.0,85,0.00,,,0.02,Wunderground v.1.15,2013-03-07 23:33:00,
2013-03-07 18:38:00,33.9,29.6,29.94,NE,41,8.0,29.0,84,0.00,,,0.02,Wunderground v.1.15,2013-03-07 23:38:00,
2013-03-07 18:44:00,33.8,29.8,29.94,North,356,8.0,29.0,85,0.00,,,0.02,Wunderground v.1.15,2013-03-07 23:44:00,
2013-03-07 18:50:00,33.9,29.6,29.94,NE,49,9.0,9.0,84,0.00,,,0.02,Wunderground v.1.15,2013-03-07 23:50:00,
2013-03-07 18:56:00,33.9,29.3,29.94,NNE,26,10.0,29.0,83,0.00,,,0.02,Wunderground v.1.15,2013-03-07 23:56:00,
2013-03-07 19:02:00,33.9,29.3,29.94,NW,326,9.0,29.0,83,0.00,,,0.02,Wunderground v.1.15,2013-03-08 00:02:00,
2013-03-07 19:08:00,33.9,29.3,29.94,North,357,9.0,29.0,83,0.00,,,0.02,Wunderground v.1.15,2013-03-08 00:08:00,
2013-03-07 19:14:00,33.8,29.2,29.95,North,356,8.0,29.0,83,0.00,,,0.02,Wunderground v.1.15,2013-03-08 00:14:00,
2013-03-07 19:19:00,33.7,29.4,29.95,NNE,26,8.0,29.0,84,0.00,,,0.02,Wunderground v.1.15,2013-03-08 00:19:00,
2013-03-07 19:24:00,33.7,29.1,29.95,NE,45,8.0,29.0,83,0.00,,,0.02,Wunderground v.1.15,2013-03-08 00:24:00,
2013-03-07 19:29:00,33.7,29.1,29.95,NE,40,9.0,29.0,83,0.00,,,0.02,Wunderground v.1.15,2013-03-08 00:29:00,
2013-03-07 19:34:00,33.7,29.1,29.95,NE,36,11.0,29.0,83,0.00,,,0.02,Wunderground v.1.15,2013-03-08 00:34:00,
2013-03-07 19:40:00,33.7,29.1,29.95,NNW,334,10.0,10.0,83,0.00,,,0.02,Wunderground v.1.15,2013-03-08 00:40:00,
2013-03-07 19:46:00,33.7,29.1,29.95,NNE,12,8.0,29.0,83,0.00,,,0.02,Wunderground v.1.15,2013-03-08 00:46:00,
2013-03-07 19:52:00,33.7,28.8,29.94,NNW,334,10.0,29.0,82,0.00,,,0.02,Wunderground v.1.15,2013-03-08 00:52:00,
2013-03-07 19:57:00,33.7,28.8,29.95,NE,39,10.0,29.0,82,0.00,,,0.02,Wunderground v.1.15,2013-03-08 00:57:00,
2013-03-07 20:04:00,33.7,28.8,29.94,NE,39,9.0,29.0,82,0.00,,,0.02,Wunderground v.1.15,2013-03-08 01:04:00,
2013-03-07 20:10:00,33.7,28.8,29.95,North,356,8.0,29.0,82,0.00,,,0.02,Wunderground v.1.15,2013-03-08 01:10:00,
2013-03-07 20:15:00,33.7,28.8,29.94,NNE,15,9.0,29.0,82,0.00,,,0.02,Wunderground v.1.15,2013-03-08 01:15:00,
2013-03-07 20:21:00,33.7,28.8,29.94,NNE,18,9.0,11.0,82,0.00,,,0.02,Wunderground v.1.15,2013-03-08 01:21:00,
2013-03-07 20:27:00,33.7,28.8,29.94,North,352,8.0,29.0,82,0.00,,,0.02,Wunderground v.1.15,2013-03-08 01:27:00,
2013-03-07 20:32:00,33.8,28.9,29.94,North,360,8.0,29.0,82,0.00,,,0.02,Wunderground v.1.15,2013-03-08 01:32:00,
2013-03-07 20:38:00,33.7,28.8,29.94,NW,323,9.0,29.0,82,0.00,,,0.02,Wunderground v.1.15,2013-03-08 01:38:00,
2013-03-07 20:44:00,33.7,28.8,29.94,NNW,343,9.0,29.0,82,0.00,,,0.02,Wunderground v.1.15,2013-03-08 01:44:00,
2013-03-07 20:49:00,33.7,28.8,29.94,NE,45,9.0,29.0,82,0.00,,,0.02,Wunderground v.1.15,2013-03-08 01:49:00,
2013-03-07 20:55:00,33.6,28.7,29.95,NE,49,10.0,29.0,82,0.00,,,0.02,Wunderground v.1.15,2013-03-08 01:55:00,
2013-03-07 21:00:00,33.6,28.4,29.94,NE,36,9.0,9.0,81,0.00,,,0.02,Wunderground v.1.15,2013-03-08 02:00:00,
2013-03-07 21:05:00,33.6,28.7,29.95,North,6,7.0,29.0,82,0.00,,,0.02,Wunderground v.1.15,2013-03-08 02:05:00,
2013-03-07 21:11:00,33.6,28.4,29.94,NNE,14,9.0,29.0,81,0.00,,,0.02,Wunderground v.1.15,2013-03-08 02:11:00,
2013-03-07 21:16:00,33.7,28.5,29.94,North,8,11.0,29.0,81,0.00,,,0.02,Wunderground v.1.15,2013-03-08 02:16:00,
2013-03-07 21:21:00,33.7,28.5,29.93,NNW,332,10.0,29.0,81,0.00,,,0.02,Wunderground v.1.15,2013-03-08 02:21:00,
2013-03-07 21:26:00,33.7,28.5,29.93,ENE,67,9.0,29.0,81,0.00,,,0.02,Wunderground v.1.15,2013-03-08 02:26:00,
2013-03-07 21:31:00,33.6,28.4,29.93,NE,39,8.0,29.0,81,0.00,,,0.02,Wunderground v.1.15,2013-03-08 02:31:00,
2013-03-07 21:37:00,33.7,28.5,29.93,NE,53,9.0,29.0,81,0.00,,,0.02,Wunderground v.1.15,2013-03-08 02:37:00,
2013-03-07 21:42:00,33.7,28.5,29.93,NE,43,9.0,29.0,81,0.00,,,0.02,Wunderground v.1.15,2013-03-08 02:42:00,
2013-03-07 21:47:00,33.7,28.5,29.93,North,6,9.0,29.0,81,0.00,,,0.02,Wunderground v.1.15,2013-03-08 02:47:00,
2013-03-07 21:52:00,33.7,28.5,29.93,NNE,32,10.0,29.0,81,0.00,,,0.02,Wunderground v.1.15,2013-03-08 02:52:00,
2013-03-07 21:58:00,33.7,28.5,29.93,NNE,15,9.0,29.0,81,0.00,,,0.02,Wunderground v.1.15,2013-03-08 02:58:00,
2013-03-07 22:04:00,33.7,28.5,29.93,NNE,19,10.0,29.0,81,0.00,,,0.02,Wunderground v.1.15,2013-03-08 03:04:00,
2013-03-07 22:09:00,33.6,28.4,29.93,NNE,22,9.0,29.0,81,0.00,,,0.02,Wunderground v.1.15,2013-03-08 03:09:00,
2013-03-07 22:15:00,33.6,28.4,29.93,NNE,26,9.0,29.0,81,0.00,,,0.02,Wunderground v.1.15,2013-03-08 03:15:00,
2013-03-07 22:22:00,33.6,28.4,29.92,NNE,13,8.0,29.0,81,0.00,,,0.02,Wunderground v.1.15,2013-03-08 03:22:00,
2013-03-07 22:27:00,33.6,28.4,29.92,NE,44,8.0,29.0,81,0.00,,,0.02,Wunderground v.1.15,2013-03-08 03:27:00,
2013-03-07 22:34:00,33.6,28.7,29.92,NNW,347,8.0,29.0,82,0.00,,,0.02,Wunderground v.1.15,2013-03-08 03:34:00,
2013-03-07 22:40:00,33.5,28.6,29.93,NW,319,8.0,8.0,82,0.00,,,0.02,Wunderground v.1.15,2013-03-08 03:40:00,
2013-03-07 22:45:00,33.5,28.6,29.92,NNE,12,9.0,29.0,82,0.00,,,0.02,Wunderground v.1.15,2013-03-08 03:45:00,
2013-03-07 22:50:00,33.4,28.5,29.92,NE,36,8.0,8.0,82,0.00,,,0.02,Wunderground v.1.15,2013-03-08 03:50:00,
2013-03-07 22:56:00,33.3,28.7,29.92,North,356,7.0,29.0,83,0.00,,,0.02,Wunderground v.1.15,2013-03-08 03:56:00,
2013-03-07 23:01:00,33.3,28.7,29.92,West,269,7.0,29.0,83,0.00,,,0.02,Wunderground v.1.15,2013-03-08 04:01:00,
2013-03-07 23:06:00,33.3,28.7,29.92,North,11,7.0,29.0,83,0.00,,,0.02,Wunderground v.1.15,2013-03-08 04:06:00,
2013-03-07 23:11:00,33.2,28.9,29.92,NNW,329,7.0,9.0,84,0.00,,,0.02,Wunderground v.1.15,2013-03-08 04:11:00,
2013-03-07 23:16:00,33.1,28.8,29.92,NE,50,9.0,13.0,84,0.00,,,0.02,Wunderground v.1.15,2013-03-08 04:16:00,
2013-03-07 23:21:00,32.9,28.9,29.93,NNE,30,10.0,10.0,85,0.00,,,0.02,Wunderground v.1.15,2013-03-08 04:21:00,
2013-03-07 23:27:00,32.9,28.9,29.92,NE,46,10.0,16.0,85,0.00,,,0.02,Wunderground v.1.15,2013-03-08 04:27:00,
2013-03-07 23:32:00,33.0,29.0,29.92,NNW,328,10.0,10.0,85,0.00,,,0.02,Wunderground v.1.15,2013-03-08 04:32:00,
2013-03-07 23:37:00,33.0,28.7,29.92,NNE,16,9.0,14.0,84,0.00,,,0.02,Wunderground v.1.15,2013-03-08 04:37:00,
2013-03-07 23:43:00,33.0,28.7,29.92,North,350,7.0,14.0,84,0.00,,,0.02,Wunderground v.1.15,2013-03-08 04:43:00,
2013-03-07 23:48:00,33.1,28.8,29.92,NNE,19,8.0,14.0,84,0.00,,,0.02,Wunderground v.1.15,2013-03-08 04:48:00,
2013-03-07 23:54:00,33.0,28.7,29.91,ENE,68,8.0,11.0,84,0.00,,,0.02,Wunderground v.1.15,2013-03-08 04:54:00,